VJC1831 VVTS-VLVT

Flight info

Callsign VJC1831
Flight time 1h 31m
Altitude 32000
Route SAPEN R468 ELMOP Y24 VIBUN N639 PAK W76 ALPHA ALPHA1A
Aircraft A21N/M-SDE2E3FGHIRWXY/LB1

Departure

Time 2026-05-09 07:43
Airport Tan Son Nhat International Airport (VVTS)

Arrival

Time 2026-05-09 09:14
Airport Wattay International Airport (VLVT)
Time Latitude Longitude Altitude Speed Heading
2026-05-09 07:05 10.81701 106.66250 43 ft 0 kts 158°
2026-05-09 07:34 10.81717 106.66243 42 ft 4 kts 158°
2026-05-09 07:34 10.81743 106.66233 42 ft 4 kts 159°
2026-05-09 07:34 10.81766 106.66224 41 ft 2 kts 159°
2026-05-09 07:35 10.81785 106.66212 41 ft 4 kts 118°
2026-05-09 07:35 10.81789 106.66187 41 ft 4 kts 79°
2026-05-09 07:35 10.81782 106.66164 39 ft 1 kts 69°
2026-05-09 07:38 10.81787 106.66179 42 ft 4 kts 69°
2026-05-09 07:38 10.81803 106.66221 42 ft 8 kts 70°
2026-05-09 07:38 10.81821 106.66270 42 ft 6 kts 70°
2026-05-09 07:38 10.81836 106.66312 42 ft 8 kts 69°
2026-05-09 07:39 10.81860 106.66372 42 ft 10 kts 69°
2026-05-09 07:39 10.81886 106.66442 42 ft 11 kts 69°
2026-05-09 07:39 10.81917 106.66522 42 ft 13 kts 69°
2026-05-09 07:39 10.81953 106.66614 42 ft 15 kts 64°
2026-05-09 07:40 10.82047 106.66624 39 ft 15 kts 34°
2026-05-09 07:40 10.82104 106.66716 38 ft 16 kts 71°
2026-05-09 07:40 10.82123 106.66771 37 ft 16 kts 69°
2026-05-09 07:40 10.82167 106.66884 37 ft 18 kts 68°
2026-05-09 07:41 10.82216 106.67003 39 ft 20 kts 36°
2026-05-09 07:41 10.82299 106.66991 40 ft 11 kts 333°
2026-05-09 07:41 10.82341 106.66931 40 ft 7 kts 295°
2026-05-09 07:41 10.82349 106.66894 40 ft 0 kts 249°
2026-05-09 07:42 10.82334 106.66855 38 ft 28 kts 249°
2026-05-09 07:42 10.82175 106.66436 38 ft 99 kts 248°
2026-05-09 07:42 10.81853 106.65580 42 ft 161 kts 248°
2026-05-09 07:42 10.81395 106.64372 221 ft 186 kts 248°
2026-05-09 07:43 10.80942 106.63143 756 ft 188 kts 250°
2026-05-09 07:43 10.80558 106.61853 1294 ft 191 kts 251°
2026-05-09 07:43 10.80154 106.60554 1782 ft 197 kts 251°
2026-05-09 07:43 10.79726 106.59203 2148 ft 209 kts 253°
2026-05-09 07:44 10.79585 106.57695 2532 ft 222 kts 279°
2026-05-09 07:44 10.80175 106.56217 2896 ft 236 kts 307°
2026-05-09 07:44 10.80650 106.55656 3004 ft 246 kts 318°
2026-05-09 07:44 10.80900 106.55429 3064 ft 250 kts 321°
2026-05-09 07:45 10.82364 106.54354 3448 ft 267 kts 326°
2026-05-09 07:45 10.83902 106.53287 4028 ft 274 kts 326°
2026-05-09 07:45 10.85479 106.52172 4771 ft 277 kts 326°
2026-05-09 07:45 10.87048 106.51003 5483 ft 281 kts 319°
2026-05-09 07:46 10.88250 106.49435 6137 ft 285 kts 297°
2026-05-09 07:46 10.89089 106.47589 6766 ft 289 kts 294°
2026-05-09 07:46 10.89893 106.45692 7381 ft 294 kts 294°
2026-05-09 07:46 10.91020 106.43969 7923 ft 298 kts 316°
2026-05-09 07:47 10.92725 106.42797 8559 ft 297 kts 339°
2026-05-09 07:47 10.94686 106.42113 9204 ft 299 kts 345°
2026-05-09 07:47 10.96695 106.41499 9822 ft 302 kts 345°
2026-05-09 07:47 10.98730 106.40861 10270 ft 311 kts 344°
2026-05-09 07:48 11.00852 106.40172 10529 ft 327 kts 344°
2026-05-09 07:48 11.03044 106.39444 10749 ft 343 kts 343°
2026-05-09 07:48 11.05371 106.38662 10962 ft 359 kts 343°
2026-05-09 07:48 11.07799 106.37841 11165 ft 375 kts 343°
2026-05-09 07:49 11.10323 106.36981 11369 ft 389 kts 343°
2026-05-09 07:49 11.12930 106.36078 11556 ft 403 kts 342°
2026-05-09 07:49 11.15626 106.35146 11744 ft 414 kts 342°
2026-05-09 07:49 11.18375 106.34197 12105 ft 419 kts 342°
2026-05-09 07:50 11.21115 106.33252 12516 ft 421 kts 342°
2026-05-09 07:50 11.23905 106.32291 12955 ft 424 kts 342°
2026-05-09 07:50 11.26711 106.31324 13437 ft 427 kts 342°
2026-05-09 07:50 11.29539 106.30345 13860 ft 429 kts 342°
2026-05-09 07:51 11.32384 106.29363 14235 ft 432 kts 342°
2026-05-09 07:51 11.35207 106.28388 14624 ft 435 kts 343°
2026-05-09 07:51 11.38087 106.27395 15064 ft 437 kts 343°
2026-05-09 07:51 11.40977 106.26392 15519 ft 440 kts 343°
2026-05-09 07:52 11.43894 106.25388 15953 ft 443 kts 343°
2026-05-09 07:52 11.46831 106.24374 16334 ft 446 kts 343°
2026-05-09 07:52 11.49742 106.23367 16694 ft 448 kts 343°
2026-05-09 07:52 11.52711 106.22346 17056 ft 451 kts 343°
2026-05-09 07:53 11.55706 106.21310 17412 ft 454 kts 343°
2026-05-09 07:53 11.58701 106.20273 17771 ft 456 kts 343°
2026-05-09 07:53 11.61731 106.19233 18119 ft 458 kts 343°
2026-05-09 07:53 11.64767 106.18187 18412 ft 461 kts 343°
2026-05-09 07:54 11.67768 106.17151 18711 ft 462 kts 343°
2026-05-09 07:54 11.70819 106.16095 19012 ft 464 kts 343°
2026-05-09 07:54 11.73886 106.15033 19333 ft 466 kts 343°
2026-05-09 07:54 11.75172 106.14586 19466 ft 467 kts 343°
2026-05-09 07:55 11.76345 106.14178 19593 ft 467 kts 343°
2026-05-09 07:55 11.76586 106.14094 19619 ft 467 kts 343°
2026-05-09 07:55 11.79437 106.13107 19922 ft 469 kts 343°
2026-05-09 07:56 11.82537 106.12035 20232 ft 471 kts 343°
2026-05-09 07:56 11.85647 106.10954 20555 ft 473 kts 343°
2026-05-09 07:56 11.88772 106.09870 20903 ft 475 kts 343°
2026-05-09 07:56 11.91916 106.08781 21295 ft 477 kts 343°
2026-05-09 07:57 11.95025 106.07705 21679 ft 479 kts 342°
2026-05-09 07:57 11.98239 106.06590 22048 ft 482 kts 342°
2026-05-09 07:57 12.00535 106.05792 22282 ft 484 kts 342°
2026-05-09 07:57 12.02240 106.05199 22449 ft 485 kts 342°
2026-05-09 07:58 12.04859 106.04290 22764 ft 485 kts 342°
2026-05-09 07:58 12.08072 106.03174 23056 ft 488 kts 342°
2026-05-09 07:58 12.11307 106.02051 23326 ft 490 kts 342°
2026-05-09 07:58 12.14537 106.00931 23576 ft 491 kts 342°
2026-05-09 07:59 12.17413 105.99930 23820 ft 491 kts 342°
2026-05-09 07:59 12.20608 105.98821 24091 ft 490 kts 342°
2026-05-09 07:59 12.23840 105.97698 24342 ft 490 kts 342°
2026-05-09 07:59 12.27061 105.96578 24627 ft 490 kts 342°
2026-05-09 08:00 12.30335 105.95439 24923 ft 489 kts 342°
2026-05-09 08:00 12.33505 105.94337 25210 ft 488 kts 342°
2026-05-09 08:00 12.36719 105.93219 25511 ft 487 kts 342°
2026-05-09 08:00 12.39924 105.92103 25817 ft 486 kts 342°
2026-05-09 08:01 12.43134 105.90989 26104 ft 486 kts 342°
2026-05-09 08:01 12.46332 105.89877 26399 ft 485 kts 342°
2026-05-09 08:01 12.49521 105.88762 26703 ft 484 kts 342°
2026-05-09 08:01 12.52713 105.87647 27009 ft 483 kts 342°
2026-05-09 08:02 12.55895 105.86537 27306 ft 482 kts 342°
2026-05-09 08:02 12.59076 105.85428 27608 ft 482 kts 342°
2026-05-09 08:02 12.62240 105.84321 27914 ft 481 kts 342°
2026-05-09 08:02 12.65405 105.83205 28212 ft 480 kts 342°
2026-05-09 08:03 12.68563 105.82093 28498 ft 480 kts 342°
2026-05-09 08:03 12.71712 105.80981 28785 ft 479 kts 342°
2026-05-09 08:03 12.74876 105.79874 29071 ft 478 kts 342°
2026-05-09 08:03 12.78027 105.78776 29352 ft 478 kts 342°
2026-05-09 08:04 12.81176 105.77683 29628 ft 477 kts 343°
2026-05-09 08:04 12.84312 105.76601 29894 ft 476 kts 343°
2026-05-09 08:04 12.87456 105.75516 30136 ft 475 kts 343°
2026-05-09 08:04 12.90548 105.74442 30365 ft 475 kts 342°
2026-05-09 08:05 12.93716 105.73336 30602 ft 474 kts 342°
2026-05-09 08:05 12.96790 105.72255 30817 ft 473 kts 342°
2026-05-09 08:05 12.99902 105.71165 31040 ft 472 kts 342°
2026-05-09 08:05 13.03011 105.70079 31251 ft 472 kts 342°
2026-05-09 08:06 13.06123 105.68993 31473 ft 471 kts 342°
2026-05-09 08:06 13.09218 105.67910 31685 ft 470 kts 342°
2026-05-09 08:06 13.12316 105.66825 31828 ft 470 kts 342°
2026-05-09 08:07 13.18506 105.64656 31829 ft 469 kts 342°
2026-05-09 08:07 13.24686 105.62482 31812 ft 469 kts 342°
2026-05-09 08:08 13.30822 105.60330 31807 ft 469 kts 342°
2026-05-09 08:08 13.37001 105.58137 31806 ft 469 kts 342°
2026-05-09 08:09 13.43145 105.55991 31805 ft 469 kts 342°
2026-05-09 08:09 13.49339 105.53837 31808 ft 469 kts 342°
2026-05-09 08:10 13.55516 105.51671 31807 ft 469 kts 342°
2026-05-09 08:10 13.61706 105.49493 31814 ft 469 kts 342°
2026-05-09 08:11 13.67890 105.47315 31810 ft 469 kts 342°
2026-05-09 08:11 13.74066 105.45141 31813 ft 470 kts 342°
2026-05-09 08:12 13.83644 105.44157 31813 ft 465 kts 13°
2026-05-09 08:12 13.89874 105.45806 31823 ft 465 kts 16°
2026-05-09 08:13 13.96118 105.47518 31821 ft 464 kts 15°
2026-05-09 08:13 14.02386 105.49194 31827 ft 465 kts 15°
2026-05-09 08:14 14.08657 105.50845 31816 ft 465 kts 15°
2026-05-09 08:14 14.14955 105.52392 31824 ft 465 kts 12°
2026-05-09 08:15 14.21282 105.53678 31823 ft 466 kts 11°
2026-05-09 08:15 14.27637 105.54969 31822 ft 466 kts 11°
2026-05-09 08:16 14.34009 105.56263 31824 ft 465 kts 12°
2026-05-09 08:16 14.39290 105.57342 31827 ft 467 kts 12°
2026-05-09 08:17 14.45661 105.58651 31829 ft 467 kts 12°
2026-05-09 08:17 14.52047 105.59989 31830 ft 468 kts 12°
2026-05-09 08:18 14.58425 105.61263 31827 ft 468 kts 11°
2026-05-09 08:18 14.64821 105.62556 31828 ft 467 kts 11°
2026-05-09 08:19 14.71169 105.63856 31835 ft 468 kts 11°
2026-05-09 08:19 14.77548 105.65161 31827 ft 468 kts 11°
2026-05-09 08:20 14.83938 105.66467 31830 ft 467 kts 12°
2026-05-09 08:20 14.90334 105.67781 31827 ft 468 kts 12°
2026-05-09 08:21 14.96717 105.69089 31826 ft 468 kts 12°
2026-05-09 08:21 15.03109 105.70403 31819 ft 468 kts 11°
2026-05-09 08:22 15.09462 105.71704 31812 ft 468 kts 12°
2026-05-09 08:22 15.15867 105.73020 31816 ft 469 kts 11°
2026-05-09 08:23 15.22332 105.73859 31816 ft 469 kts
2026-05-09 08:23 15.28865 105.73944 31824 ft 469 kts
2026-05-09 08:24 15.35353 105.74034 31833 ft 469 kts
2026-05-09 08:24 15.41890 105.74131 31837 ft 469 kts
2026-05-09 08:25 15.48433 105.74229 31849 ft 470 kts
2026-05-09 08:25 15.54969 105.74325 31852 ft 470 kts
2026-05-09 08:26 15.61518 105.74422 31852 ft 470 kts
2026-05-09 08:26 15.68061 105.74520 31849 ft 470 kts
2026-05-09 08:27 15.74604 105.74617 31849 ft 470 kts
2026-05-09 08:27 15.81117 105.74715 31849 ft 471 kts
2026-05-09 08:28 15.87684 105.74813 31849 ft 471 kts
2026-05-09 08:28 15.94252 105.74910 31852 ft 471 kts
2026-05-09 08:29 16.00752 105.74217 31849 ft 471 kts 342°
2026-05-09 08:29 16.03768 105.72858 31855 ft 471 kts 331°
2026-05-09 08:29 16.06575 105.71195 31857 ft 471 kts 329°
2026-05-09 08:30 16.12246 105.67768 31853 ft 471 kts 330°
2026-05-09 08:30 16.17950 105.64391 31853 ft 472 kts 330°
2026-05-09 08:31 16.23645 105.61054 31852 ft 469 kts 330°
2026-05-09 08:31 16.29339 105.57697 31852 ft 470 kts 330°
2026-05-09 08:32 16.35030 105.54345 31855 ft 470 kts 330°
2026-05-09 08:33 16.43532 105.49326 31857 ft 470 kts 330°
2026-05-09 08:33 16.49218 105.45961 31861 ft 468 kts 329°
2026-05-09 08:34 16.54893 105.42600 31861 ft 469 kts 329°
2026-05-09 08:34 16.60566 105.39240 31862 ft 469 kts 330°
2026-05-09 08:35 16.66242 105.35875 31864 ft 469 kts 329°
2026-05-09 08:35 16.71925 105.32504 31865 ft 469 kts 329°
2026-05-09 08:36 16.77600 105.29133 31868 ft 470 kts 330°
2026-05-09 08:36 16.83239 105.25785 31871 ft 469 kts 329°
2026-05-09 08:37 16.88920 105.22407 31868 ft 469 kts 329°
2026-05-09 08:37 16.94606 105.19036 31866 ft 470 kts 329°
2026-05-09 08:38 17.00287 105.15660 31867 ft 469 kts 329°
2026-05-09 08:38 17.05963 105.12282 31864 ft 469 kts 329°
2026-05-09 08:39 17.11644 105.08900 31864 ft 470 kts 329°
2026-05-09 08:39 17.17330 105.05518 31863 ft 470 kts 329°
2026-05-09 08:40 17.22987 105.02148 31864 ft 471 kts 329°
2026-05-09 08:40 17.28680 104.98750 31863 ft 471 kts 329°
2026-05-09 08:41 17.34379 104.95350 31865 ft 471 kts 329°
2026-05-09 08:41 17.40070 104.91956 31865 ft 471 kts 329°
2026-05-09 08:42 17.45423 104.88063 31856 ft 468 kts 319°
2026-05-09 08:42 17.50376 104.83623 31857 ft 468 kts 319°
2026-05-09 08:43 17.55358 104.79219 31847 ft 470 kts 319°
2026-05-09 08:43 17.60383 104.74811 31876 ft 471 kts 319°
2026-05-09 08:44 17.65362 104.70433 31880 ft 471 kts 319°
2026-05-09 08:44 17.70383 104.66024 31882 ft 471 kts 319°
2026-05-09 08:45 17.75399 104.61603 31875 ft 471 kts 319°
2026-05-09 08:45 17.80416 104.57187 31876 ft 471 kts 319°
2026-05-09 08:46 17.85436 104.52748 31874 ft 471 kts 319°
2026-05-09 08:46 17.90443 104.48315 31879 ft 469 kts 319°
2026-05-09 08:47 17.95382 104.43943 31865 ft 467 kts 319°
2026-05-09 08:47 18.00367 104.39538 31880 ft 467 kts 319°
2026-05-09 08:48 18.05344 104.35157 31858 ft 467 kts 319°
2026-05-09 08:48 18.10346 104.30755 31864 ft 468 kts 319°
2026-05-09 08:49 18.15296 104.26373 31870 ft 469 kts 319°
2026-05-09 08:49 18.20275 104.21962 31877 ft 467 kts 319°
2026-05-09 08:50 18.25271 104.17530 31867 ft 469 kts 319°
2026-05-09 08:50 18.30265 104.13096 31870 ft 470 kts 319°
2026-05-09 08:51 18.35260 104.08658 31872 ft 469 kts 319°
2026-05-09 08:51 18.40219 104.04247 31854 ft 469 kts 318°
2026-05-09 08:52 18.44364 103.99012 31869 ft 467 kts 296°
2026-05-09 08:52 18.45549 103.95838 31866 ft 466 kts 284°
2026-05-09 08:52 18.46143 103.92487 31861 ft 465 kts 277°
2026-05-09 08:53 18.47018 103.85729 31855 ft 465 kts 277°
2026-05-09 08:53 18.47934 103.78998 31332 ft 462 kts 278°
2026-05-09 08:53 18.48402 103.75640 30422 ft 466 kts 277°
2026-05-09 08:54 18.48872 103.72248 29517 ft 468 kts 277°
2026-05-09 08:54 18.49344 103.68848 28573 ft 470 kts 277°
2026-05-09 08:54 18.49817 103.65441 27684 ft 471 kts 277°
2026-05-09 08:54 18.50293 103.62017 26795 ft 472 kts 277°
2026-05-09 08:55 18.50770 103.58574 25903 ft 474 kts 277°
2026-05-09 08:55 18.51247 103.55139 25013 ft 474 kts 277°
2026-05-09 08:55 18.51720 103.51709 24161 ft 471 kts 277°
2026-05-09 08:55 18.52188 103.48306 23388 ft 468 kts 277°
2026-05-09 08:56 18.52654 103.44924 22526 ft 465 kts 277°
2026-05-09 08:56 18.53121 103.41560 21926 ft 459 kts 277°
2026-05-09 08:56 18.53571 103.38286 21506 ft 462 kts 277°
2026-05-09 08:56 18.54017 103.34886 21113 ft 469 kts 275°
2026-05-09 08:57 18.54064 103.31471 20551 ft 461 kts 263°
2026-05-09 08:57 18.53596 103.28164 19972 ft 453 kts 258°
2026-05-09 08:57 18.53037 103.24926 19420 ft 445 kts 258°
2026-05-09 08:57 18.52538 103.22077 18889 ft 437 kts 258°
2026-05-09 08:58 18.52006 103.18944 18272 ft 430 kts 258°
2026-05-09 08:58 18.51496 103.15857 17508 ft 424 kts 258°
2026-05-09 08:58 18.50998 103.12815 16869 ft 421 kts 258°
2026-05-09 08:58 18.50506 103.09783 16294 ft 417 kts 258°
2026-05-09 08:59 18.50016 103.06785 15754 ft 414 kts 258°
2026-05-09 08:59 18.49524 103.03810 15223 ft 410 kts 258°
2026-05-09 08:59 18.49183 103.01760 14873 ft 408 kts 258°
2026-05-09 08:59 18.49036 103.00879 14748 ft 406 kts 258°
2026-05-09 09:00 18.48516 102.97822 14250 ft 402 kts 258°
2026-05-09 09:00 18.48038 102.94943 13857 ft 397 kts 258°
2026-05-09 09:00 18.47565 102.92070 13419 ft 396 kts 258°
2026-05-09 09:00 18.47095 102.89225 12855 ft 393 kts 258°
2026-05-09 09:01 18.46617 102.86367 12353 ft 404 kts 258°
2026-05-09 09:01 18.46121 102.83418 12003 ft 408 kts 258°
2026-05-09 09:01 18.45640 102.80527 11687 ft 393 kts 258°
2026-05-09 09:01 18.45174 102.77743 11449 ft 377 kts 258°
2026-05-09 09:02 18.44874 102.75964 11311 ft 367 kts 258°
2026-05-09 09:02 18.44439 102.73363 11123 ft 353 kts 258°
2026-05-09 09:02 18.43768 102.70110 10866 ft 333 kts 248°
2026-05-09 09:02 18.43070 102.68670 10715 ft 322 kts 234°
2026-05-09 09:03 18.41627 102.66936 10542 ft 308 kts 224°
2026-05-09 09:03 18.40144 102.65409 10377 ft 295 kts 223°
2026-05-09 09:03 18.38678 102.63910 9988 ft 293 kts 223°
2026-05-09 09:03 18.37223 102.62404 9497 ft 293 kts 224°
2026-05-09 09:04 18.35782 102.60897 9077 ft 291 kts 224°
2026-05-09 09:04 18.34349 102.59392 8606 ft 290 kts 224°
2026-05-09 09:04 18.32921 102.57888 8142 ft 290 kts 224°
2026-05-09 09:04 18.31499 102.56390 7746 ft 287 kts 224°
2026-05-09 09:05 18.30087 102.54904 7314 ft 287 kts 224°
2026-05-09 09:05 18.28675 102.53416 6870 ft 287 kts 224°
2026-05-09 09:05 18.27269 102.51930 6478 ft 285 kts 223°
2026-05-09 09:05 18.25890 102.50473 6067 ft 284 kts 224°
2026-05-09 09:06 18.24494 102.48999 5639 ft 283 kts 223°
2026-05-09 09:06 18.23109 102.47537 5232 ft 281 kts 223°
2026-05-09 09:06 18.21730 102.46083 4815 ft 280 kts 223°
2026-05-09 09:06 18.20357 102.44636 4410 ft 279 kts 223°
2026-05-09 09:07 18.18996 102.43203 4093 ft 274 kts 223°
2026-05-09 09:07 18.17660 102.41797 3931 ft 269 kts 223°
2026-05-09 09:07 18.16363 102.40427 3789 ft 258 kts 224°
2026-05-09 09:07 18.15129 102.39115 3620 ft 247 kts 223°
2026-05-09 09:08 18.13965 102.37871 3423 ft 234 kts 223°
2026-05-09 09:08 18.12644 102.37029 3227 ft 213 kts 188°
2026-05-09 09:08 18.11300 102.37243 3058 ft 187 kts 147°
2026-05-09 09:08 18.10613 102.38252 2978 ft 162 kts 105°
2026-05-09 09:09 18.10409 102.39415 2995 ft 161 kts 99°
2026-05-09 09:09 18.10248 102.40554 3015 ft 156 kts 101°
2026-05-09 09:09 18.10086 102.41682 3004 ft 157 kts 100°
2026-05-09 09:09 18.09915 102.42807 3005 ft 156 kts 101°
2026-05-09 09:10 18.09715 102.43930 2998 ft 158 kts 105°
2026-05-09 09:10 18.09316 102.44983 2983 ft 157 kts 118°
2026-05-09 09:10 18.08706 102.45945 2862 ft 159 kts 127°
2026-05-09 09:10 18.07992 102.46820 2694 ft 158 kts 132°
2026-05-09 09:11 18.07223 102.47639 2492 ft 157 kts 135°
2026-05-09 09:11 18.06448 102.48447 2295 ft 156 kts 135°
2026-05-09 09:11 18.05683 102.49241 2091 ft 158 kts 135°
2026-05-09 09:11 18.04908 102.50043 1896 ft 156 kts 135°
2026-05-09 09:12 18.04138 102.50841 1693 ft 155 kts 135°
2026-05-09 09:12 18.03365 102.51641 1504 ft 156 kts 135°
2026-05-09 09:12 18.02604 102.52430 1329 ft 153 kts 135°
2026-05-09 09:12 18.01846 102.53213 1152 ft 150 kts 135°
2026-05-09 09:13 18.01101 102.53986 973 ft 151 kts 136°
2026-05-09 09:13 18.00351 102.54758 756 ft 151 kts 135°
2026-05-09 09:13 17.99604 102.55528 580 ft 149 kts 135°
2026-05-09 09:13 17.98955 102.56199 565 ft 104 kts 135°
2026-05-09 09:14 17.98552 102.56615 567 ft 64 kts 137°
2026-05-09 09:14 17.98315 102.56835 568 ft 38 kts 150°
2026-05-09 09:14 17.98075 102.56921 568 ft 36 kts 166°
2026-05-09 09:14 17.97900 102.56971 571 ft 19 kts 165°
2026-05-09 09:15 17.97844 102.56987 569 ft 7 kts 165°
2026-05-09 09:15 17.97790 102.56984 574 ft 9 kts 205°
2026-05-09 09:15 17.97739 102.56936 573 ft 11 kts 199°
2026-05-09 09:15 17.97679 102.56928 569 ft 8 kts 212°
2026-05-09 09:16 17.97645 102.56894 572 ft 4 kts 225°
2026-05-09 09:16 17.97630 102.56879 574 ft 0 kts 225°
2026-05-09 09:58 17.97640 102.56890 576 ft 4 kts 221°
2026-05-09 09:58 17.97662 102.56906 572 ft 4 kts 208°
2026-05-09 09:58 17.97687 102.56916 574 ft 5 kts 184°
2026-05-09 09:59 17.97710 102.56911 577 ft 5 kts 141°
2026-05-09 09:59 17.97714 102.56908 577 ft 1 kts 135°
2026-05-09 10:02 17.97712 102.56911 568 ft 2 kts 135°
2026-05-09 10:02 17.97688 102.56935 568 ft 6 kts 134°
2026-05-09 10:02 17.97651 102.56975 571 ft 9 kts 134°
2026-05-09 10:03 17.97602 102.57027 568 ft 11 kts 135°
2026-05-09 10:03 17.97540 102.57092 572 ft 14 kts 135°
2026-05-09 10:03 17.97465 102.57182 570 ft 20 kts 83°
2026-05-09 10:03 17.97556 102.57277 569 ft 21 kts 360°
2026-05-09 10:04 17.97611 102.57276 571 ft 8 kts
2026-05-09 10:04 17.97672 102.57280 570 ft 10 kts
2026-05-09 10:04 17.97747 102.57284 573 ft 12 kts
2026-05-09 10:04 17.97834 102.57284 570 ft 13 kts 359°
2026-05-09 10:05 17.97921 102.57270 567 ft 14 kts 292°
2026-05-09 10:05 17.98002 102.57184 567 ft 29 kts 315°
2026-05-09 10:05 17.98340 102.56833 572 ft 107 kts 315°
2026-05-09 10:05 17.99035 102.56118 568 ft 168 kts 315°
2026-05-09 10:06 17.99939 102.55219 1103 ft 178 kts 319°
2026-05-09 10:06 18.00816 102.54289 1902 ft 178 kts 315°
2026-05-09 10:06 18.01688 102.53335 2607 ft 196 kts 315°
2026-05-09 10:06 18.02738 102.52226 3351 ft 230 kts 316°
2026-05-09 10:07 18.03905 102.51022 4000 ft 239 kts 318°
2026-05-09 10:07 18.05359 102.50117 4571 ft 251 kts 342°
2026-05-09 10:07 18.07134 102.49858 5094 ft 266 kts
2026-05-09 10:07 18.08924 102.50451 5672 ft 276 kts 33°
2026-05-09 10:08 18.10306 102.51810 6405 ft 278 kts 58°
2026-05-09 10:08 18.11179 102.53640 7181 ft 281 kts 69°
2026-05-09 10:08 18.11930 102.55560 7967 ft 285 kts 69°
2026-05-09 10:08 18.12701 102.57496 8735 ft 290 kts 68°
2026-05-09 10:09 18.13512 102.59469 9513 ft 295 kts 68°
2026-05-09 10:09 18.14347 102.61466 10197 ft 303 kts 68°
2026-05-09 10:09 18.15244 102.63543 10552 ft 322 kts 64°
2026-05-09 10:09 18.16550 102.65551 10822 ft 344 kts 47°
2026-05-09 10:10 18.18423 102.67196 11091 ft 364 kts 37°
2026-05-09 10:10 18.20548 102.68767 11361 ft 383 kts 35°
2026-05-09 10:10 18.22771 102.70392 11830 ft 392 kts 36°
2026-05-09 10:10 18.25019 102.72054 12457 ft 397 kts 36°
2026-05-09 10:11 18.27298 102.73750 13109 ft 402 kts 36°
2026-05-09 10:11 18.29597 102.75471 13740 ft 407 kts 36°
2026-05-09 10:11 18.31919 102.77216 14292 ft 412 kts 36°
2026-05-09 10:11 18.34264 102.78981 14859 ft 416 kts 36°